Location: Czu?�w
(50.1404°N, 18.9919°E)
Time: 13:28:54
(UTC+00:00)

Cosmos 1697 Rocket - Pass Details

Date: 27 October 2020
Orbit: 831 x 845 km, 71.0° (Epoch: 28 November)

Event Time Altitude Azimuth Distance (km) Brightness Sun altitude
Rises 19:24:30 0° 245° (WSW) 3,374 6.3 -37.5°
Reaches altitude 10° 19:27:16 10° 257° (WSW) 2,445 5.5 -37.9°
Enters shadow 19:31:28 28° 305° (NW) 1,537 4.5 -38.5°
